Home > Weather > Beckum > Past weeks

Flag for Germany Weather for the Past 2 Weeks in Beckum, North Rhine-Westphalia, Germany

Now
39 °F

Passing clouds.


Feels Like: 39 °F
Forecast: 40 / 64 °F
Wind: 2 mph from South

Location: Paderborn / Lippstadt

Current Time: May 4, 2016 at 4:31:43 AM

Latest Report: May 4, 2016 at 3:50 AM


Visibility: N/A

Pressure: 30.36 "Hg

Humidity: 100%

Dew Point: 39 °F

Location of BeckumLocation

Historic Weather in Beckum — Graph

°F

Beckum Temperature Yesterday

Maximum temperature yesterday: 55 °F (at 5:50 PM)
Minimum temperature yesterday: 45 °F (at 9:50 AM)
Average temperature yesterday: 50 °F

High & Low Weather Summary for the Past Weeks

 TemperatureHumidityPressure
High66 °F (May 2, 3:20 PM)100% (Apr 20, 4:20 AM)30.45 "Hg (Apr 20, 4:20 AM)
Low32 °F (Apr 24, 4:20 PM)28% (May 2, 2:50 PM)29.45 "Hg (Apr 26, 10:50 AM)
Average44 °F77%30.01 "Hg
* Reported Apr 19 3:20 AM — May 4 3:20 AM, Beckum, Weather by CustomWeather, © 2016

Note: Actual official high and low records may vary slightly from our data, if they occured in-between our weather recording intervals... More about our weather records

Advertising

Beckum Weather History for the Previous 24 Hours

Scroll right to see more
 ConditionsComfort  
Time TempWeatherWind HumidityBarometerVisibility
3:20 AM
Wed, May 4
39 °FPassing clouds.2 mph93%30.33 "HgN/A
2:50 AM39 °FClear.3 mph93%30.33 "Hg10 mi
2:20 AM41 °FClear.5 mph87%30.33 "Hg10 mi
1:50 AM39 °FClear.3 mph93%30.33 "Hg10 mi
12:50 AM43 °FClear.2 mph81%30.33 "Hg10 mi
12:20 AM45 °FClear.2 mph71%30.33 "Hg10 mi
11:50 PM
Tue, May 3
45 °FClear.2 mph71%30.33 "Hg10 mi
11:20 PM45 °FPassing clouds.6 mph76%30.30 "HgN/A
10:50 PM46 °FPassing clouds.3 mph71%30.30 "HgN/A
10:20 PM48 °FPassing clouds.6 mph66%30.30 "HgN/A
9:50 PM50 °FPassing clouds.6 mph58%30.27 "HgN/A
9:20 PM50 °FPassing clouds.5 mph58%30.27 "HgN/A
8:50 PM50 °FPassing clouds.6 mph58%30.24 "HgN/A
8:20 PM52 °FPassing clouds.7 mph54%30.24 "HgN/A
7:50 PM54 °FPassing clouds.10 mph47%30.21 "HgN/A
7:20 PM54 °FPassing clouds.10 mph47%30.21 "HgN/A
6:50 PM55 °FPassing clouds.10 mph44%30.18 "HgN/A
6:20 PM55 °FScattered clouds.7 mph51%30.18 "HgN/A
5:50 PM55 °FScattered clouds.7 mph55%30.18 "HgN/A
5:20 PM54 °FScattered clouds.8 mph51%30.18 "HgN/A
4:50 PM54 °FScattered showers. Scattered clouds.12 mph54%30.18 "HgN/A
4:20 PM54 °FScattered showers. Scattered clouds.10 mph51%30.18 "HgN/A
3:50 PM54 °FScattered showers. Scattered clouds.12 mph54%30.18 "HgN/A
3:20 PM52 °FScattered showers. Broken clouds.9 mph72%30.15 "HgN/A
2:50 PM54 °FScattered clouds.8 mph72%30.15 "HgN/A
2:20 PM52 °FScattered showers. Scattered clouds.7 mph62%30.15 "HgN/A
1:50 PM54 °FScattered clouds.10 mph72%30.15 "HgN/A
1:20 PM52 °FScattered clouds.10 mph77%30.15 "HgN/A
12:50 PM50 °FBroken clouds.8 mph100%30.15 "HgN/A
12:20 PM48 °FBroken clouds.6 mph100%30.15 "HgN/A
11:50 AM48 °FBroken clouds.6 mph100%30.15 "Hg6 mi
11:20 AM46 °FLight rain. Broken clouds.5 mph100%30.15 "Hg5 mi
10:50 AM46 °FLight rain. Broken clouds.7 mph93%30.12 "Hg4 mi
10:20 AM45 °FLight rain. Mostly cloudy.6 mph100%30.12 "Hg4 mi
9:50 AM45 °FLight rain. Low clouds.8 mph100%30.12 "Hg4 mi
9:20 AM46 °FRain. Low clouds.8 mph93%30.09 "Hg2 mi
8:50 AM50 °FLight rain. More clouds than sun.9 mph100%30.07 "Hg4 mi
8:20 AM50 °FScattered clouds.7 mph100%30.07 "Hg6 mi
7:50 AM50 °FScattered clouds.6 mph82%30.04 "Hg6 mi
7:20 AM50 °FScattered clouds.6 mph76%30.04 "Hg6 mi
6:50 AM50 °FPassing clouds.5 mph76%30.04 "HgN/A
6:20 AM48 °FClear.1 mph94%30.04 "Hg10 mi
5:50 AM46 °FClear.1 mph100%30.04 "Hg10 mi
5:20 AM48 °FClear.3 mph87%30.07 "Hg10 mi
4:50 AM48 °FClear.6 mph82%30.07 "Hg10 mi
4:20 AM48 °FClear.6 mph87%30.07 "Hg10 mi
Weather by CustomWeather, © 2016

See weather overviewHow to use our weather pages